Regional Weather Roundup
Issued by NWS Newport/Morehead, NC

Current Version | Previous Version | Text Only | Print | Product List | Glossary On
Versions: 1 2 3 4 5 6 7 8 9 10 11 12 13 14 15 16 17 18 19 20 21 22 23 24 25 26 27 28 29 30 31 32 33 34 35 36 37 38 39 40 41 42 43 44 45 46 47 48 49 50
000 ASUS42 KMHX 231714 RWRMHX WEATHER ROUNDUP FOR EASTERN NORTH CAROLINA NATIONAL WEATHER SERVICE NEWPORT/MOREHEAD CITY NC 100 PM EDT WED AUG 23 2017 NOTE: "FAIR" INDICATES FEW OR NO CLOUDS BELOW 12,000 FEET WITH NO SIGNIFICANT WEATHER AND/OR OBSTRUCTIONS TO VISIBILITY NCZ015>017-031-032-045>047-102-103-231800- NORTH COAST CITY SKY/WX TMP DP RH WIND PRES REMARKS EDENTON CLOUDY 89 77 68 CALM 29.87F HX 101 ELIZABETH CITY PTSUNNY 88 79 74 VRB5 29.85F HX 103 KITTY HAWK PTSUNNY 89 74 61 CALM 29.86S MANTEO PTSUNNY 87 76 70 S8 29.87F $$ NCZ045>047-081-094-103-104-231800- CENTRAL COAST CITY SKY/WX TMP DP RH WIND PRES REMARKS FRISCO MOSUNNY 86 79 79 SW13 29.89F $$ NCZ095-097-098-100-101-231800- SOUTHERN COAST CITY SKY/WX TMP DP RH WIND PRES REMARKS BEAUFORT CLOUDY 87 79 76 W16G22 29.89F HX 101 CEDAR ISLAND NOT AVBL JACKSONVILLE CLOUDY 91 77 63 VRB3 29.88F HX 104 PINEY ISLAND N/A N/A N/A N/A SW12 29.88F WILMINGTON MOSUNNY 91 74 57 SW8 29.89F HX 100 $$ NCZ011>013-027>030-043-044-078>080-089-090>093-098-231800- COASTAL PLAIN CITY SKY/WX TMP DP RH WIND PRES REMARKS AHOSKIE N/A 87 76 69 CALM 29.86F CLINTON MOSUNNY 91 77 64 S5 29.88F HX 103 ELIZABETHTOWN NOT AVBL GOLDSBORO NOT AVBL GREENVILLE MOSUNNY 90 75 62 CALM 29.89F HX 100 HAVELOCK MOSUNNY 91 76 61 SW8 29.89F HX 103 KENANSVILLE MOSUNNY 90 75 62 SW7 29.88F HX 100 KINSTON MOSUNNY 91 73 55 SW5 29.88F HX 100 NEW BERN PTSUNNY 89 76 65 W6 29.89F HX 100 RICHLANDS MOSUNNY 91 78 65 S10 29.88F HX 106 ROCKY MOUNT SUNNY 91 77 63 VRB6 29.87F HX 104 WASHINGTON SUNNY 90 77 65 SW6 29.87F HX 102 WHITEVILLE SUNNY 90 75 62 S7 29.89F HX 100 $$ AMZ130-135-150-152-154-156-158-170-250-252-270-ANZ085-086-088-633-658-670-231800- MARINE OBSERVATIONS STATION/POSITION TIME TEMP WIND PRES WAVE SWELL AIR SEA DIR/SP/G HT/PER HT/PER (UTC) (F) (DEG/KT/KT) (MB) (FT/S) (FT/S) CHESAPEAKE LIGHT NOT AVBL 64 E VA BEACH 1650 80 79 230/ 6/ 8 1012.0 4/ 9 3/ 9 DUCK 1648 84 66 250/ 8/ 10 1010.9 2 E DUCK 1700 72 N/A 2/ 9 2/14 OREGON INLET 1642 83 84 180/ 14/ 17 1011.4 13E OREGON INLT 1648 80 N/A 3/ 9 2/ 9 HATTERAS CG 1648 84 82 220/ 9/ 12 1012.3 DIAMOND BUOY 1650 83 85 220/ 16/ 17 1012.3 4/ 5 2/ 9 CAPE LOOKOUT 1700 84 230/ 11/ 16 1012.0 BEAUFORT LAB 1648 86 80 230/ 6/ 14 1011.8 30 SE NEW RVR IN 1608 81 84 240/ 16/ 19 1013.2 30 SE NEW RVR IN 1643 84 N/A 4/10 2/11 27 SE WRIGHTSVLE 1608 82 84 210/ 14/ 19 1013.2 5 SE WRIGHTSVLE 1608 83 84 210/ 12/ 19 1013.0 225 S CAPE HAT 1650 83 85 270/ 6/ 8 1015.3 3/ 9 3/ 9 41 SE CHARLESTON 1650 83 84 230/ 8/ 10 1013.5 4/ 9 3/ 9 $$

USA.gov is the U.S. government's official web portal to all federal, state and local government web resources and services.